TimeCST,TemperatureF,Dew PointF,Humidity,Sea Level PressureIn,VisibilityMPH,Wind Direction,Wind SpeedMPH,Gust SpeedMPH,PrecipitationIn,Events,Conditions,WindDirDegrees,DateUTC
12:53 AM,39.0,28.0,65,30.25,10.0,Calm,Calm,-,N/A,,Clear,0,2012-11-15 06:53:00
1:53 AM,36.0,28.0,73,30.26,10.0,Calm,Calm,-,N/A,,Clear,0,2012-11-15 07:53:00
2:53 AM,33.1,28.9,85,30.27,10.0,Calm,Calm,-,N/A,,Clear,0,2012-11-15 08:53:00
3:53 AM,32.0,27.0,82,30.25,10.0,Calm,Calm,-,N/A,,Clear,0,2012-11-15 09:53:00
4:53 AM,30.0,27.0,88,30.25,10.0,Calm,Calm,-,N/A,,Clear,0,2012-11-15 10:53:00
5:53 AM,33.1,28.0,82,30.26,10.0,Calm,Calm,-,N/A,,Clear,0,2012-11-15 11:53:00
6:53 AM,35.1,28.9,78,30.27,10.0,ESE,3.5,-,N/A,,Clear,120,2012-11-15 12:53:00
7:53 AM,36.0,30.9,82,30.28,10.0,NE,4.6,-,N/A,,Clear,50,2012-11-15 13:53:00
8:53 AM,39.9,32.0,73,30.29,10.0,Calm,Calm,-,N/A,,Clear,0,2012-11-15 14:53:00
9:53 AM,43.0,34.0,71,30.30,10.0,ESE,3.5,-,N/A,,Clear,110,2012-11-15 15:53:00
10:53 AM,50.0,34.0,54,30.30,10.0,SSE,6.9,-,N/A,,Clear,160,2012-11-15 16:53:00
11:53 AM,52.0,36.0,54,30.28,10.0,ESE,5.8,-,N/A,,Clear,120,2012-11-15 17:53:00
12:53 PM,57.0,39.0,51,30.25,10.0,SSE,10.4,-,N/A,,Clear,150,2012-11-15 18:53:00
1:53 PM,59.0,41.0,51,30.22,10.0,SE,6.9,-,N/A,,Clear,140,2012-11-15 19:53:00
2:53 PM,62.1,42.1,48,30.21,10.0,SSE,10.4,-,N/A,,Clear,150,2012-11-15 20:53:00
3:53 PM,63.0,42.1,46,30.22,10.0,SSE,10.4,-,N/A,,Clear,150,2012-11-15 21:53:00
4:53 PM,61.0,41.0,48,30.24,10.0,SSE,6.9,-,N/A,,Clear,150,2012-11-15 22:53:00
5:53 PM,54.0,42.1,64,30.25,10.0,SE,6.9,-,N/A,,Clear,130,2012-11-15 23:53:00
6:53 PM,51.1,39.0,63,30.28,10.0,ESE,8.1,-,N/A,,Clear,120,2012-11-16 00:53:00
7:53 PM,48.0,37.9,68,30.31,10.0,East,4.6,-,N/A,,Clear,80,2012-11-16 01:53:00
8:53 PM,48.0,37.9,68,30.33,10.0,East,5.8,-,N/A,,Mostly Cloudy,80,2012-11-16 02:53:00
9:53 PM,48.9,37.9,66,30.35,10.0,East,5.8,-,N/A,,Overcast,90,2012-11-16 03:53:00
10:53 PM,48.0,37.0,66,30.34,10.0,ENE,5.8,-,N/A,,Mostly Cloudy,70,2012-11-16 04:53:00
11:53 PM,48.9,36.0,61,30.35,10.0,ENE,3.5,-,N/A,,Overcast,60,2012-11-16 05:53:00